Location: Newark
(48.9320°N, 2.2664°E)
Time: 12:07:39
(UTC+00:00)

Vanguard 1 Rocket - Pass Details

Date: 20 February 2020
Orbit: 650 x 4226 km, 34.3° (Epoch: 03 April)

Event Time Altitude Azimuth Distance (km) Brightness Sun altitude
Rises 03:17:07 0° 228° (SW) 4,046 - -35.2°
Reaches altitude 10° 03:21:45 10° 204° (SSW) 2,565 - -34.5°
Maximum altitude 03:24:28 14° 174° (S) 2,080 - -34.1°
Drops below altitude 10° 03:26:50 10° 144° (SE) 2,163 - -33.7°
Exits shadow 03:27:40 - 135° (SE) 2,306 9.7 -33.6°
Sets 03:30:06 0° 116° (ESE) 2,962 10.6 -33.2°
